,,PA_Meas_PMT16A,,PR_Meas_QMR101_102,,RH_Meas_QMH101,,SR_Meas_QMS101,,TA_Meas_QMH101,,GenWind,,GenWind,
time,status,PA,status,PR,status,RH,status,SR,status,TA,status,DirAvg,status,SpdAvg,
2013-10-04, 06:54:04,VALID,918.684,VALID,0,VALID,96.5582,VALID,52.109,VALID,18.3979,VALID,121,VALID,0,
2013-10-04, 06:55:04,VALID,918.678,VALID,0,VALID,96.5658,VALID,53.1834,VALID,18.4383,VALID,121,VALID,0,
2013-10-04, 06:56:04,VALID,918.688,VALID,0,VALID,96.5429,VALID,54.2578,VALID,18.455,VALID,121,VALID,0,
2013-10-04, 06:57:04,VALID,918.695,VALID,0,VALID,96.5429,VALID,55.3322,VALID,18.494,VALID,121,VALID,0,
2013-10-04, 06:58:04,VALID,918.677,VALID,0,VALID,96.5277,VALID,56.4066,VALID,18.494,VALID,116,VALID,0,
2013-10-04, 06:59:04,VALID,918.696,VALID,0,VALID,96.5048,VALID,57.5885,VALID,18.5135,VALID,116,VALID,0,
2013-10-04, 07:00:04,VALID,918.714,VALID,0,VALID,96.4515,VALID,58.9852,VALID,18.494,VALID,116,VALID,0,
2013-10-04, 07:01:04,VALID,918.72,VALID,0,VALID,96.4438,VALID,60.9191,VALID,18.533,VALID,116,VALID,0,
2013-10-04, 07:02:04,VALID,918.745,VALID,0,VALID,96.3676,VALID,63.4977,VALID,18.5316,VALID,116,VALID,0,
2013-10-04, 07:03:04,VALID,918.743,VALID,0,VALID,96.3676,VALID,66.6135,VALID,18.572,VALID,116,VALID,0,
2013-10-04, 07:04:04,VALID,918.758,VALID,0,VALID,96.3676,VALID,68.8698,VALID,18.6319,VALID,116,VALID,0,
2013-10-04, 07:05:04,VALID,918.782,VALID,0,VALID,96.3447,VALID,71.5558,VALID,18.6304,VALID,133,VALID,0,
2013-10-04, 07:06:04,VALID,918.815,VALID,0,VALID,96.299,VALID,75.746,VALID,18.6304,VALID,133,VALID,0,
2013-10-04, 07:07:04,VALID,918.845,VALID,0,VALID,96.2761,VALID,78.432,VALID,18.6903,VALID,133,VALID,0,
2013-10-04, 07:08:04,VALID,918.858,VALID,0,VALID,96.2533,VALID,81.6553,VALID,18.7084,VALID,133,VALID,0,
2013-10-04, 07:09:04,VALID,918.86,VALID,0,VALID,96.2228,VALID,84.6636,VALID,18.7503,VALID,129,VALID,0,
2013-10-04, 07:10:04,VALID,918.885,VALID,0,VALID,96.238,VALID,87.5645,VALID,18.7683,VALID,129,VALID,0,
2013-10-04, 07:11:04,VALID,918.919,VALID,0,VALID,96.2304,VALID,90.2506,VALID,18.7878,VALID,127,VALID,0,
2013-10-04, 07:12:04,VALID,918.924,VALID,0,VALID,96.2304,VALID,92.8292,VALID,18.8268,VALID,125,VALID,0,
2013-10-04, 07:13:04,VALID,918.97,VALID,0,VALID,96.1999,VALID,95.6226,VALID,18.8672,VALID,110,VALID,0,
2013-10-04, 07:14:04,VALID,918.992,VALID,0,VALID,96.177,VALID,98.3087,VALID,18.8658,VALID,96,VALID,0,
2013-10-04, 07:15:04,VALID,919.026,VALID,0,VALID,96.1084,VALID,101.424,VALID,18.8463,VALID,91,VALID,0,
2013-10-04, 07:16:04,VALID,919.045,VALID,0,VALID,96.0779,VALID,104.54,VALID,18.8853,VALID,88,VALID,0,
2013-10-04, 07:17:04,VALID,919.062,VALID,0,VALID,96.055,VALID,107.656,VALID,18.9048,VALID,88,VALID,0,
2013-10-04, 07:18:04,VALID,919.088,VALID,0,VALID,96.055,VALID,110.557,VALID,18.9243,VALID,89,VALID,0,
2013-10-04, 07:19:04,VALID,919.152,VALID,0,VALID,96.0093,VALID,113.888,VALID,18.9048,VALID,100,VALID,0,
2013-10-04, 07:20:04,VALID,919.164,VALID,0,VALID,95.9788,VALID,117.003,VALID,18.9243,VALID,115,VALID,0,
2013-10-04, 07:21:04,VALID,919.19,VALID,0,VALID,95.9864,VALID,119.904,VALID,18.9633,VALID,126,VALID,0,
2013-10-04, 07:22:04,VALID,919.198,VALID,0,VALID,95.9331,VALID,123.45,VALID,18.9633,VALID,116,VALID,0,
2013-10-04, 07:23:04,VALID,919.211,VALID,0,VALID,95.9102,VALID,126.995,VALID,18.9633,VALID,112,VALID,0,
2013-10-04, 07:24:04,VALID,919.235,VALID,0,VALID,95.834,VALID,132.045,VALID,19.0023,VALID,112,VALID,0,
2013-10-04, 07:25:04,VALID,919.252,VALID,0,VALID,95.8111,VALID,135.483,VALID,19.0413,VALID,112,VALID,0,
2013-10-04, 07:26:04,VALID,919.257,VALID,0,VALID,95.773,VALID,136.987,VALID,19.0398,VALID,112,VALID,0,
2013-10-04, 07:27:04,VALID,919.291,VALID,0,VALID,95.773,VALID,138.384,VALID,19.1193,VALID,112,VALID,0,
2013-10-04, 07:28:04,VALID,919.284,VALID,0,VALID,95.7806,VALID,139.673,VALID,19.1763,VALID,112,VALID,0,
2013-10-04, 07:29:04,VALID,919.328,VALID,0,VALID,95.6205,VALID,140.855,VALID,19.1778,VALID,88,VALID,0,
2013-10-04, 07:30:04,VALID,919.297,VALID,0,VALID,95.3918,VALID,144.401,VALID,19.2168,VALID,89,VALID,0,
2013-10-04, 07:31:04,VALID,919.336,VALID,0,VALID,95.1555,VALID,149.128,VALID,19.2153,VALID,87,VALID,0,
2013-10-04, 07:32:04,VALID,919.357,VALID,0,VALID,95.0411,VALID,153.748,VALID,19.2738,VALID,87,VALID,0,
2013-10-04, 07:33:04,VALID,919.353,VALID,0,VALID,94.9344,VALID,159.013,VALID,19.3728,VALID,87,VALID,0,
2013-10-04, 07:34:04,VALID,919.35,VALID,0,VALID,94.942,VALID,166.641,VALID,19.4508,VALID,87,VALID,0,
2013-10-04, 07:35:04,VALID,919.359,VALID,0,VALID,94.8887,VALID,177.708,VALID,19.5288,VALID,87,VALID,0,
2013-10-04, 07:36:04,VALID,919.359,VALID,0,VALID,94.6676,VALID,206.18,VALID,19.5873,VALID,87,VALID,0,
2013-10-04, 07:37:04,VALID,919.364,VALID,0,VALID,94.3245,VALID,242.817,VALID,19.6248,VALID,87,VALID,0,
2013-10-04, 07:38:04,VALID,919.427,VALID,0,VALID,93.3182,VALID,242.172,VALID,19.6833,VALID,117,VALID,0,
2013-10-04, 07:39:04,VALID,919.43,VALID,0,VALID,92.7007,VALID,225.841,VALID,19.7418,VALID,114,VALID,0,
2013-10-04, 07:40:04,VALID,919.429,VALID,0,VALID,92.3501,VALID,219.18,VALID,19.8393,VALID,103,VALID,0,
2013-10-04, 07:41:04,VALID,919.449,VALID,0,VALID,92.8075,VALID,218.535,VALID,19.9563,VALID,125,VALID,0,
2013-10-04, 07:42:04,VALID,919.472,VALID,0,VALID,92.8227,VALID,218.428,VALID,20.0358,VALID,161,VALID,0,
2013-10-04, 07:43:04,VALID,919.423,VALID,0,VALID,92.5711,VALID,223.155,VALID,20.0163,VALID,169,VALID,0,
2013-10-04, 07:44:04,VALID,919.409,VALID,0,VALID,92.411,VALID,230.032,VALID,20.0148,VALID,157,VALID,0,
2013-10-04, 07:45:04,VALID,919.412,VALID,0,VALID,92.1366,VALID,232.503,VALID,20.0148,VALID,151,VALID,0,
2013-10-04, 07:46:04,VALID,919.407,VALID,0,VALID,92.3196,VALID,248.297,VALID,20.0928,VALID,151,VALID,0,
2013-10-04, 07:47:04,VALID,919.388,VALID,0,VALID,92.8075,VALID,266.024,VALID,20.2489,VALID,151,VALID,0,
2013-10-04, 07:48:04,VALID,919.412,VALID,0,VALID,92.8532,VALID,321.249,VALID,20.3659,VALID,151,VALID,0,
2013-10-04, 07:49:04,VALID,919.395,VALID,0,VALID,91.8469,VALID,371.424,VALID,20.4634,VALID,151,VALID,0,
2013-10-04, 07:50:04,VALID,919.425,VALID,0,VALID,91.3133,VALID,468.658,VALID,20.6585,VALID,151,VALID,0,
2013-10-04, 07:51:04,VALID,919.43,VALID,0,VALID,90.1545,VALID,506.478,VALID,20.8145,VALID,151,VALID,0,
2013-10-04, 07:52:04,VALID,919.464,VALID,0,VALID,91.3285,VALID,520.552,VALID,21.1461,VALID,151,VALID,0,
2013-10-04, 07:53:04,VALID,919.458,VALID,0,VALID,90.4671,VALID,520.552,VALID,21.4778,VALID,151,VALID,0,
2013-10-04, 07:54:04,VALID,919.452,VALID,0,VALID,83.6899,VALID,529.255,VALID,21.6144,VALID,134,VALID,0,
2013-10-04, 07:55:04,VALID,919.461,VALID,0,VALID,83.0342,VALID,493.907,VALID,21.7315,VALID,112,VALID,0,
2013-10-04, 07:56:04,VALID,919.463,VALID,0,VALID,81.3495,VALID,525.495,VALID,21.9461,VALID,112,VALID,0,
2013-10-04, 07:57:04,VALID,919.492,VALID,0,VALID,81.2504,VALID,519.585,VALID,22.2388,VALID,112,VALID,0,
2013-10-04, 07:58:04,VALID,919.485,VALID,0,VALID,82.5159,VALID,525.495,VALID,22.5121,VALID,112,VALID,0,
2013-10-04, 07:59:04,VALID,919.544,VALID,0,VALID,68.8394,VALID,532.908,VALID,22.6096,VALID,313,VALID,0,
2013-10-04, 08:00:04,VALID,919.538,VALID,0,VALID,65.0582,VALID,507.767,VALID,22.5103,VALID,313,VALID,0,
2013-10-04, 08:01:04,VALID,919.552,VALID,0,VALID,64.7609,VALID,488.965,VALID,22.4323,VALID,313,VALID,0,
2013-10-04, 08:02:04,VALID,919.535,VALID,0,VALID,69.5942,VALID,541.289,VALID,22.395,VALID,319,VALID,0,
2013-10-04, 08:03:04,VALID,919.536,VALID,0,VALID,66.6287,VALID,501.106,VALID,22.395,VALID,312,VALID,0,
2013-10-04, 08:04:04,VALID,919.539,VALID,0,VALID,67.8865,VALID,470.7,VALID,22.4535,VALID,321,VALID,0,
2013-10-04, 08:05:04,VALID,919.587,VALID,0,VALID,69.1825,VALID,450.608,VALID,22.5103,VALID,298,VALID,0,
2013-10-04, 08:06:04,VALID,919.594,VALID,0,VALID,67.9856,VALID,442.443,VALID,22.5103,VALID,293,VALID,0,
2013-10-04, 08:07:04,VALID,919.604,VALID,0,VALID,67.9704,VALID,446.633,VALID,22.5689,VALID,293,VALID,0,
2013-10-04, 08:08:04,VALID,919.648,VALID,0,VALID,69.9372,VALID,457.914,VALID,22.6274,VALID,311,VALID,0,
2013-10-04, 08:09:04,VALID,919.653,VALID,0,VALID,71.2713,VALID,470.27,VALID,22.647,VALID,4,VALID,0,
2013-10-04, 08:10:04,VALID,919.645,VALID,0,VALID,72.674,VALID,379.697,VALID,22.725,VALID,354,VALID,0,
2013-10-04, 08:11:04,VALID,919.656,VALID,0,VALID,74.4503,VALID,395.383,VALID,22.7818,VALID,1,VALID,0,
2013-10-04, 08:12:04,VALID,919.657,VALID,0,VALID,74.7705,VALID,567.612,VALID,22.8794,VALID,2,VALID,0,
2013-10-04, 08:13:04,VALID,919.661,VALID,0,VALID,76.4095,VALID,592.108,VALID,22.977,VALID,3,VALID,0,
2013-10-04, 08:14:04,VALID,919.657,VALID,0,VALID,72.5139,VALID,518.726,VALID,23.0533,VALID,338,VALID,0,
2013-10-04, 08:15:04,VALID,919.669,VALID,0,VALID,74.5036,VALID,513.031,VALID,23.1509,VALID,329,VALID,0,
2013-10-04, 08:16:04,VALID,919.663,VALID,0,VALID,73.909,VALID,498.205,VALID,23.2698,VALID,16,VALID,0,
2013-10-04, 08:17:04,VALID,919.679,VALID,0,VALID,67.2157,VALID,450.286,VALID,23.2502,VALID,316,VALID,0,
2013-10-04, 08:18:04,VALID,919.693,VALID,0,VALID,68.6489,VALID,464.576,VALID,23.0746,VALID,314,VALID,0,
2013-10-04, 08:19:04,VALID,919.711,VALID,0,VALID,71.5686,VALID,387.755,VALID,22.977,VALID,311,VALID,0,
2013-10-04, 08:20:04,VALID,919.711,VALID,0,VALID,70.0744,VALID,393.449,VALID,22.8582,VALID,269,VALID,0,
2013-10-04, 08:21:04,VALID,919.721,VALID,0,VALID,71.1112,VALID,376.474,VALID,22.8209,VALID,259,VALID,0,
2013-10-04, 08:22:04,VALID,919.739,VALID,0,VALID,70.1049,VALID,361.432,VALID,22.8599,VALID,259,VALID,0,
2013-10-04, 08:23:04,VALID,919.74,VALID,0,VALID,69.8076,VALID,300.728,VALID,22.9965,VALID,306,VALID,0,
2013-10-04, 08:24:04,VALID,919.727,VALID,0,VALID,73.1314,VALID,317.918,VALID,23.1527,VALID,306,VALID,0,
2013-10-04, 08:25:04,VALID,919.75,VALID,0,VALID,67.0327,VALID,294.389,VALID,23.229,VALID,306,VALID,0,
2013-10-04, 08:26:04,VALID,919.768,VALID,0,VALID,70.2879,VALID,315.77,VALID,23.1704,VALID,306,VALID,0,
2013-10-04, 08:27:04,VALID,919.776,VALID,0,VALID,70.9283,VALID,312.869,VALID,23.1136,VALID,305,VALID,0,
2013-10-04, 08:28:04,VALID,919.817,VALID,0,VALID,69.4646,VALID,307.926,VALID,23.016,VALID,305,VALID,0,
2013-10-04, 08:29:04,VALID,919.815,VALID,0,VALID,71.8278,VALID,296.752,VALID,22.977,VALID,305,VALID,0,
2013-10-04, 08:30:04,VALID,919.829,VALID,0,VALID,73.2,VALID,316.092,VALID,22.9575,VALID,305,VALID,0,
2013-10-04, 08:31:04,VALID,919.832,VALID,0,VALID,72.857,VALID,339.407,VALID,22.8794,VALID,300,VALID,0,
2013-10-04, 08:32:04,VALID,919.868,VALID,0,VALID,72.9027,VALID,336.398,VALID,22.7428,VALID,285,VALID,0,
2013-10-04, 08:33:04,VALID,919.87,VALID,0,VALID,72.8036,VALID,356.919,VALID,22.6435,VALID,290,VALID,0,
2013-10-04, 08:34:04,VALID,919.864,VALID,0,VALID,73.6956,VALID,463.394,VALID,22.6435,VALID,290,VALID,0,
2013-10-04, 08:35:04,VALID,919.858,VALID,0,VALID,74.7857,VALID,543.437,VALID,22.8191,VALID,6,VALID,0,
2013-10-04, 08:36:04,VALID,919.858,VALID,0,VALID,76.2494,VALID,437.5,VALID,22.9753,VALID,355,VALID,0,
2013-10-04, 08:37:04,VALID,919.878,VALID,0,VALID,76.0664,VALID,434.922,VALID,23.0746,VALID,329,VALID,0,
2013-10-04, 08:38:04,VALID,919.869,VALID,0,VALID,72.3157,VALID,439.542,VALID,22.977,VALID,293,VALID,0,
2013-10-04, 08:39:04,VALID,919.897,VALID,0,VALID,77.2481,VALID,492.403,VALID,22.8972,VALID,334,VALID,0,
2013-10-04, 08:40:04,VALID,919.881,VALID,0,VALID,75.6929,VALID,429.55,VALID,22.938,VALID,334,VALID,0,
2013-10-04, 08:41:04,VALID,919.895,VALID,0,VALID,75.6395,VALID,446.74,VALID,22.9948,VALID,334,VALID,0,
2013-10-04, 08:42:04,VALID,919.902,VALID,0,VALID,77.4234,VALID,467.369,VALID,23.1704,VALID,334,VALID,0,
2013-10-04, 08:43:04,VALID,919.905,VALID,0,VALID,75.4489,VALID,508.197,VALID,23.1687,VALID,295,VALID,0,
2013-10-04, 08:44:04,VALID,919.899,VALID,0,VALID,77.0575,VALID,479.188,VALID,23.0356,VALID,294,VALID,0,
2013-10-04, 08:45:04,VALID,919.89,VALID,0,VALID,77.1566,VALID,719.856,VALID,22.9523,VALID,329,VALID,0,
2013-10-04, 08:46:04,VALID,919.883,VALID,0,VALID,76.7449,VALID,492.51,VALID,23.1084,VALID,322,VALID,0,
2013-10-04, 08:47:04,VALID,919.868,VALID,0,VALID,74.9611,VALID,446.203,VALID,23.268,VALID,322,VALID,0,
2013-10-04, 08:48:04,VALID,919.884,VALID,0,VALID,73.7413,VALID,719.211,VALID,23.3443,VALID,310,VALID,0,
2013-10-04, 08:49:04,VALID,919.901,VALID,0,VALID,72.6664,VALID,718.674,VALID,23.5412,VALID,294,VALID,0,
2013-10-04, 08:50:04,VALID,919.914,VALID,0,VALID,71.5915,VALID,553.967,VALID,23.598,VALID,295,VALID,0,
2013-10-04, 08:51:04,VALID,919.921,VALID,0,VALID,69.5484,VALID,434.385,VALID,23.6956,VALID,295,VALID,0,
2013-10-04, 08:52:04,VALID,919.931,VALID,0,VALID,66.3847,VALID,539.247,VALID,23.7364,VALID,265,VALID,0,
2013-10-04, 08:53:04,VALID,919.949,VALID,0,VALID,72.613,VALID,713.194,VALID,23.7151,VALID,339,VALID,0,
2013-10-04, 08:54:04,VALID,919.968,VALID,0,VALID,70.5852,VALID,769.279,VALID,23.8322,VALID,24,VALID,0,
2013-10-04, 08:55:04,VALID,919.974,VALID,0,VALID,71.7135,VALID,473.815,VALID,23.9103,VALID,22,VALID,0,
2013-10-04, 08:56:04,VALID,919.989,VALID,0,VALID,68.8318,VALID,393.879,VALID,24.0274,VALID,342,VALID,0,
2013-10-04, 08:57:04,VALID,920.041,VALID,0,VALID,66.6515,VALID,463.609,VALID,24.0274,VALID,4,VALID,0,
2013-10-04, 08:58:04,VALID,920.009,VALID,0,VALID,70.0821,VALID,523.776,VALID,23.9902,VALID,3,VALID,0,
2013-10-04, 08:59:04,VALID,920.015,VALID,0,VALID,71.1036,VALID,599.737,VALID,24.0274,VALID,29,VALID,0,
2013-10-04, 09:00:04,VALID,920.05,VALID,0,VALID,71.4848,VALID,549.024,VALID,24.1269,VALID,23,VALID,0,
2013-10-04, 09:01:04,VALID,920.043,VALID,0,VALID,68.8852,VALID,331.349,VALID,24.1836,VALID,27,VALID,0,
2013-10-04, 09:02:04,VALID,920.067,VALID,0,VALID,70.7148,VALID,341.77,VALID,24.283,VALID,9,VALID,0,
2013-10-04, 09:03:04,VALID,920.054,VALID,0,VALID,64.4712,VALID,379.804,VALID,24.1854,VALID,20,VALID,0,
2013-10-04, 09:04:04,VALID,920.085,VALID,0,VALID,66.1103,VALID,450.716,VALID,24.0292,VALID,31,VALID,0,
2013-10-04, 09:05:04,VALID,920.088,VALID,0,VALID,67.8865,VALID,568.364,VALID,23.9121,VALID,40,VALID,0,
2013-10-04, 09:06:04,VALID,920.062,VALID,0,VALID,67.6883,VALID,636.589,VALID,23.9689,VALID,29,VALID,0,
2013-10-04, 09:07:04,VALID,920.115,VALID,0,VALID,67.9399,VALID,656.895,VALID,24.0665,VALID,30,VALID,0,
2013-10-04, 09:08:04,VALID,920.118,VALID,0,VALID,68.4888,VALID,512.817,VALID,24.1269,VALID,360,VALID,0,
2013-10-04, 09:09:04,VALID,920.134,VALID,0,VALID,69.3197,VALID,435.137,VALID,24.1659,VALID,14,VALID,0,
2013-10-04, 09:10:04,VALID,920.114,VALID,0,VALID,67.6959,VALID,438.467,VALID,24.1854,VALID,20,VALID,0,
2013-10-04, 09:11:04,VALID,920.114,VALID,0,VALID,65.2259,VALID,639.06,VALID,24.1659,VALID,6,VALID,0,
2013-10-04, 09:12:04,VALID,920.139,VALID,0,VALID,64.8753,VALID,696.971,VALID,24.125,VALID,308,VALID,0,
2013-10-04, 09:13:04,VALID,920.143,VALID,0,VALID,66.7583,VALID,684.937,VALID,24.3026,VALID,333,VALID,0,
2013-10-04, 09:14:04,VALID,920.14,VALID,0,VALID,65.9197,VALID,675.59,VALID,24.3806,VALID,33,VALID,0,
2013-10-04, 09:15:04,VALID,920.124,VALID,0,VALID,66.8726,VALID,689.88,VALID,24.4959,VALID,20,VALID,0,
2013-10-04, 09:16:04,VALID,920.146,VALID,0,VALID,65.2488,VALID,689.557,VALID,24.7126,VALID,2,VALID,0,
2013-10-04, 09:17:04,VALID,920.135,VALID,0,VALID,63.9986,VALID,695.681,VALID,24.8883,VALID,28,VALID,0,
2013-10-04, 09:18:04,VALID,920.135,VALID,0,VALID,63.9986,VALID,685.045,VALID,25.0836,VALID,14,VALID,0,
2013-10-04, 09:19:04,VALID,920.121,VALID,0,VALID,62.2223,VALID,698.905,VALID,25.1207,VALID,3,VALID,0,
2013-10-04, 09:20:04,VALID,920.147,VALID,0,VALID,60.0039,VALID,689.88,VALID,25.0817,VALID,311,VALID,0,
2013-10-04, 09:21:04,VALID,920.159,VALID,0,VALID,62.6569,VALID,688.161,VALID,25.0426,VALID,22,VALID,0,
2013-10-04, 09:22:04,VALID,920.143,VALID,0,VALID,64.2883,VALID,692.136,VALID,24.8083,VALID,8,VALID,0,
2013-10-04, 09:23:04,VALID,920.16,VALID,0,VALID,63.8995,VALID,714.161,VALID,24.7302,VALID,23,VALID,0,
2013-10-04, 09:24:04,VALID,920.205,VALID,0,VALID,64.2654,VALID,721.36,VALID,24.8102,VALID,16,VALID,0,
2013-10-04, 09:25:04,VALID,920.194,VALID,0,VALID,62.5501,VALID,737.691,VALID,25.0055,VALID,5,VALID,0,
2013-10-04, 09:26:04,VALID,920.227,VALID,0,VALID,58.8299,VALID,736.294,VALID,25.0036,VALID,20,VALID,0,
2013-10-04, 09:27:04,VALID,920.219,VALID,0,VALID,61.8335,VALID,741.237,VALID,24.945,VALID,352,VALID,0,
2013-10-04, 09:28:04,VALID,920.2,VALID,0,VALID,62.2223,VALID,751.443,VALID,25.0231,VALID,353,VALID,0,
2013-10-04, 09:29:04,VALID,920.192,VALID,0,VALID,58.7689,VALID,745.212,VALID,25.1207,VALID,325,VALID,0,
2013-10-04, 09:30:04,VALID,920.155,VALID,0,VALID,61.8564,VALID,726.839,VALID,25.1402,VALID,3,VALID,0,
2013-10-04, 09:31:04,VALID,920.131,VALID,0,VALID,60.4689,VALID,728.129,VALID,25.2379,VALID,3,VALID,0,
2013-10-04, 09:32:04,VALID,920.102,VALID,0,VALID,60.225,VALID,706.211,VALID,25.1598,VALID,21,VALID,0,
2013-10-04, 09:33:04,VALID,920.081,VALID,0,VALID,59.5389,VALID,694.822,VALID,25.2379,VALID,357,VALID,0,
2013-10-04, 09:34:04,VALID,920.083,VALID,0,VALID,60.4842,VALID,645.184,VALID,25.1988,VALID,3,VALID,0,
2013-10-04, 09:35:04,VALID,920.042,VALID,0,VALID,61.9326,VALID,632.828,VALID,25.1012,VALID,347,VALID,0,
2013-10-04, 09:36:04,VALID,920.04,VALID,0,VALID,61.7116,VALID,598.447,VALID,25.0426,VALID,356,VALID,0,
2013-10-04, 09:37:04,VALID,920.005,VALID,0,VALID,62.1461,VALID,609.406,VALID,25.0426,VALID,306,VALID,0,
2013-10-04, 09:38:04,VALID,920.003,VALID,0,VALID,62.2376,VALID,599.522,VALID,25.0426,VALID,296,VALID,0,
2013-10-04, 09:39:04,VALID,920.011,VALID,0,VALID,63.1905,VALID,592.216,VALID,25.1598,VALID,12,VALID,0,
2013-10-04, 09:40:04,VALID,920.026,VALID,0,VALID,62.1918,VALID,602.208,VALID,25.1969,VALID,9,VALID,0,
2013-10-04, 09:41:04,VALID,919.995,VALID,0,VALID,61.46,VALID,544.512,VALID,25.1579,VALID,27,VALID,0,
2013-10-04, 09:42:04,VALID,920.002,VALID,0,VALID,62.7026,VALID,536.991,VALID,25.0407,VALID,27,VALID,0,
2013-10-04, 09:43:04,VALID,920.036,VALID,0,VALID,65.0811,VALID,516.147,VALID,25.0231,VALID,41,VALID,0,
2013-10-04, 09:44:04,VALID,919.995,VALID,0,VALID,61.0941,VALID,492.51,VALID,25.0817,VALID,14,VALID,0,
2013-10-04, 09:45:04,VALID,920.027,VALID,0,VALID,64.4789,VALID,480.477,VALID,25.0621,VALID,16,VALID,0,
2013-10-04, 09:46:04,VALID,920.049,VALID,0,VALID,63.3506,VALID,460.493,VALID,24.9645,VALID,29,VALID,0,
2013-10-04, 09:47:04,VALID,920.049,VALID,0,VALID,62.7255,VALID,528.825,VALID,24.8845,VALID,38,VALID,0,
2013-10-04, 09:48:04,VALID,920.054,VALID,0,VALID,63.6327,VALID,680.855,VALID,25.0017,VALID,13,VALID,0,
2013-10-04, 09:49:04,VALID,920.064,VALID,0,VALID,61.3456,VALID,719.641,VALID,25.0993,VALID,25,VALID,0,
2013-10-04, 09:50:04,VALID,920.061,VALID,0,VALID,62.4815,VALID,681.069,VALID,25.1188,VALID,345,VALID,0,
2013-10-04, 09:51:04,VALID,920.046,VALID,0,VALID,62.5349,VALID,687.838,VALID,25.1774,VALID,27,VALID,0,
2013-10-04, 09:52:04,VALID,920.051,VALID,0,VALID,61.8793,VALID,678.383,VALID,25.3355,VALID,358,VALID,0,
2013-10-04, 09:53:04,VALID,920.042,VALID,0,VALID,63.7775,VALID,668.499,VALID,25.5093,VALID,132,VALID,0,
2013-10-04, 09:54:04,VALID,920.01,VALID,0,VALID,60.6671,VALID,686.119,VALID,25.687,VALID,358,VALID,0,
2013-10-04, 09:55:04,VALID,920.035,VALID,0,VALID,59.8972,VALID,735.112,VALID,25.6655,VALID,13,VALID,0,
2013-10-04, 09:56:04,VALID,920.015,VALID,0,VALID,62.9999,VALID,706.211,VALID,25.6851,VALID,22,VALID,0,
2013-10-04, 09:57:04,VALID,920.015,VALID,0,VALID,60.4842,VALID,727.269,VALID,25.7046,VALID,355,VALID,0,
2013-10-04, 09:58:04,VALID,920.058,VALID,0,VALID,61.5286,VALID,719.211,VALID,25.646,VALID,320,VALID,0,
2013-10-04, 09:59:04,VALID,920.025,VALID,0,VALID,57.8998,VALID,677.524,VALID,25.7241,VALID,317,VALID,0,
2013-10-04, 10:00:04,VALID,920.011,VALID,0,VALID,60.8196,VALID,609.514,VALID,25.7241,INVALID,360,VALID,0,
2013-10-04, 10:01:04,VALID,920.045,VALID,0,VALID,60.9492,VALID,645.614,VALID,25.7437,VALID,13,VALID,0,
2013-10-04, 10:02:04,VALID,919.996,VALID,0,VALID,60.9111,VALID,650.664,VALID,25.8042,VALID,12,VALID,0,
2013-10-04, 10:03:04,VALID,920.003,VALID,0,VALID,59.4169,VALID,671.4,VALID,25.7827,VALID,24,VALID,0,
2013-10-04, 10:04:04,VALID,920.032,VALID,0,VALID,60.1945,VALID,670.648,VALID,25.8413,VALID,12,VALID,0,
2013-10-04, 10:05:04,VALID,919.985,VALID,0,VALID,55.6052,VALID,702.665,VALID,25.8433,VALID,5,VALID,0,
2013-10-04, 10:06:04,VALID,919.994,VALID,0,VALID,57.694,VALID,723.079,VALID,25.6675,VALID,38,VALID,0,
2013-10-04, 10:07:04,VALID,919.977,VALID,0,VALID,58.0066,VALID,731.997,VALID,25.5289,VALID,9,VALID,0,
2013-10-04, 10:08:04,VALID,919.99,VALID,0,VALID,60.8654,VALID,730.815,VALID,25.5289,VALID,1,VALID,0,
2013-10-04, 10:09:04,VALID,919.901,VALID,0,VALID,58.6546,VALID,748.865,VALID,25.5093,VALID,24,VALID,0,
2013-10-04, 10:10:04,VALID,919.946,VALID,0,VALID,57.8617,VALID,749.509,VALID,25.3531,VALID,312,VALID,0,
2013-10-04, 10:11:04,VALID,919.94,VALID,0,VALID,59.0967,VALID,749.724,VALID,25.3336,VALID,33,VALID,0,
2013-10-04, 10:12:04,VALID,919.946,VALID,0,VALID,60.0573,VALID,731.245,VALID,25.4898,VALID,306,VALID,0,
2013-10-04, 10:13:04,VALID,919.935,VALID,0,VALID,58.1819,VALID,747.79,VALID,25.5289,VALID,264,VALID,0,
2013-10-04, 10:14:04,VALID,919.901,VALID,0,VALID,62.3367,VALID,745.104,VALID,25.648,VALID,296,VALID,0,
2013-10-04, 10:15:04,VALID,919.907,VALID,0,VALID,58.1514,VALID,728.773,VALID,25.7632,VALID,14,VALID,0,
2013-10-04, 10:16:04,VALID,919.878,VALID,0,VALID,55.4604,VALID,661.085,VALID,25.6655,VALID,18,VALID,0,
2013-10-04, 10:17:04,VALID,919.881,VALID,0,VALID,57.7398,VALID,630.357,VALID,25.4703,VALID,9,VALID,0,
2013-10-04, 10:18:04,VALID,919.913,VALID,0,VALID,59.8591,VALID,683.003,VALID,25.4117,VALID,20,VALID,0,
2013-10-04, 10:19:04,VALID,919.88,VALID,0,VALID,60.6062,VALID,641.316,VALID,25.4312,VALID,23,VALID,0,
2013-10-04, 10:20:04,VALID,919.903,VALID,0,VALID,60.7662,VALID,609.943,VALID,25.4507,VALID,352,VALID,0,
2013-10-04, 10:21:04,VALID,919.905,VALID,0,VALID,58.7689,VALID,600.274,VALID,25.4312,VALID,25,VALID,0,
2013-10-04, 10:22:04,VALID,919.907,VALID,0,VALID,58.2963,VALID,615.853,VALID,25.3726,VALID,15,VALID,0,
2013-10-04, 10:23:04,VALID,919.91,VALID,0,VALID,60.5833,VALID,645.077,VALID,25.3922,VALID,10,VALID,0,
2013-10-04, 10:24:04,VALID,919.922,VALID,0,VALID,59.6532,VALID,670.97,VALID,25.3922,VALID,353,VALID,0,
2013-10-04, 10:25:04,VALID,919.902,VALID,0,VALID,59.0434,VALID,690.524,VALID,25.3726,VALID,23,VALID,0,
2013-10-04, 10:26:04,VALID,919.881,VALID,0,VALID,58.7384,VALID,736.939,VALID,25.3121,VALID,10,VALID,0,
2013-10-04, 10:27:04,VALID,919.867,VALID,0,VALID,57.0384,VALID,747.576,VALID,25.2555,VALID,339,VALID,0,
2013-10-04, 10:28:04,VALID,919.873,VALID,0,VALID,62.0927,VALID,774.973,VALID,25.2164,VALID,345,VALID,0,
2013-10-04, 10:29:04,VALID,919.889,VALID,0,VALID,62.1308,VALID,804.627,VALID,25.355,VALID,10,VALID,0,
2013-10-04, 10:30:04,VALID,919.893,VALID,0,VALID,60.3393,VALID,819.131,VALID,25.4703,VALID,37,VALID,0,
2013-10-04, 10:31:04,VALID,919.893,VALID,0,VALID,57.8617,VALID,842.661,VALID,25.6441,VALID,13,VALID,0,
2013-10-04, 10:32:04,VALID,919.887,VALID,0,VALID,60.3088,VALID,834.818,VALID,25.7046,VALID,26,VALID,0,
2013-10-04, 10:33:04,VALID,919.864,VALID,0,VALID,60.7662,VALID,823.644,VALID,25.8784,VALID,14,VALID,0,
2013-10-04, 10:34:04,VALID,919.872,VALID,0,VALID,62.5349,VALID,819.239,VALID,26.1147,VALID,356,VALID,0,
2013-10-04, 10:35:04,VALID,919.857,VALID,0,VALID,56.7335,VALID,806.99,VALID,26.0952,VALID,257,VALID,0,
2013-10-04, 10:36:04,VALID,919.862,VALID,0,VALID,55.8644,VALID,745.642,VALID,26.1342,VALID,17,VALID,0,
2013-10-04, 10:37:04,VALID,919.854,VALID,0,VALID,57.5873,VALID,639.49,VALID,26.31,VALID,262,VALID,0,
2013-10-04, 10:38:04,VALID,919.857,VALID,0,VALID,55.1935,VALID,687.731,VALID,26.4858,VALID,9,VALID,0,
2013-10-04, 10:39:04,VALID,919.837,VALID,0,VALID,54.0195,VALID,656.573,VALID,26.564,VALID,358,VALID,0,
2013-10-04, 10:40:04,VALID,919.81,VALID,0,VALID,54.9648,VALID,577.926,VALID,26.3686,VALID,4,VALID,0,
2013-10-04, 10:41:04,VALID,919.821,VALID,0,VALID,58.3877,VALID,518.833,VALID,26.2905,VALID,40,VALID,0,